Preview of NWS' New Version of Forecast
This preview is not operational and should not be used for support decisions.

Regional Weather Roundup (RWR)

Issued by National Weather Service (NWS)

                            
000
ASUS42 KTBW 231915
RWRFL 
FLORIDA REGIONAL WEATHER ROUNDUP
NATIONAL WEATHER SERVICE TAMPA BAY RUSKIN FL
300 PM EDT TUE APR 23 2019

NOTE: "FAIR" INDICATES FEW OR NO CLOUDS BELOW 12,000 FEET WITH NO
SIGNIFICANT WEATHER AND/OR OBSTRUCTIONS TO VISIBILITY.

FLZ001>010-012>015-112-114-115-232000-
PANHANDLE FLORIDA
  
CITY           SKY/WX    TMP DP  RH WIND       PRES   REMARKS
PENSACOLA      FAIR      79  47  32 SE14      30.12F                  
PENSACOLA NAS  PTSUNNY   76  51  41 S12       30.13S                  
MILTON NAS     PTSUNNY   80  53  39 S15G24    30.11F                  
CRESTVIEW      FAIR      83  44  25 SW9       30.11F                  
DUKE FIELD     FAIR      82  44  26 SE12G18   30.10F                  
VALPARAISO     FAIR      79  47  31 S12       30.11F                  
MARY ESTHER    MOSUNNY   78  51  38 S9        30.11F                  
PANAMA CITY    FAIR      81  50  33 SE10      30.11F                  
TYNDALL AFB    FAIR      79  48  33 S9        30.11F                  
APALACHICOLA   FAIR      77  53  43 S9        30.13F                  

STATION/POSITION SKY/WX   TEMP    WIND        PRES    WAVE   SWELL
                          AIR SEA DIR/SP/G            HT/PER HT/PER
                          (F)     (DEG/KT/KT) (MB)    (FT/S) (FT/S)
30.1N   87.6W                                 1021.0F
29.2N   88.2W                     130/  6/  8 1020.9F   1/ 3
PANAMA CITY BEAC           74 68  180/  6/  7 1020.5F
TOWER C          NOT AVBL

$$
FLZ011-016>038-118-127-128-134-139-239-232000-
NORTH FLORIDA
  
CITY           SKY/WX    TMP DP  RH WIND       PRES   REMARKS
MARIANNA       FAIR      82  50  32 VRB3      30.10F                  
TALLAHASSEE    CLOUDY    86  51  29 CALM      30.09F                  
PERRY          FAIR      85  51  30 SW3       30.10F                  
LIVE OAK       SUNNY     84  50  30 CALM      30.09F                  
CROSS CITY     FAIR      84  48  28 SE5       30.09F                  
LAKE CITY      FAIR      82  50  32 S8G17     30.09F                  
GAINESVILLE    FAIR      86  53  32 SE8       30.11F                  
PALATKA        FAIR     N/A N/A N/A CALM      30.10F                  
MAYPORT NAS    FAIR      78  59  51 SE10      30.11F                  
JACKSONVILLE   FAIR      83  49  30 VRB5      30.08F                  
JAX NAS        PTSUNNY   82  48  30 S5        30.10F                  
JAX CECIL      SUNNY     88  48  25 VRB5      30.09F                  
FERNANDINA BEA FAIR      78  56  47 SE12      30.10F                  
ST AUGUSTINE   FAIR      78  57  48 E10       30.12F                  
PALM COAST     SUNNY     81  52  36 E12       30.12F                  

STATION/POSITION SKY/WX   TEMP    WIND        PRES    WAVE   SWELL
                          AIR SEA DIR/SP/G            HT/PER HT/PER
                          (F)     (DEG/KT/KT) (MB)    (FT/S) (FT/S)
SHELL POINT      NOT AVBL
KEATON BEACH               72     240/ 11/ 12 1019.8F
CEDAR KEY                  72     250/  7/  9 1019.7F
FERNANDINA                    70  140/  8/ 10 1020.0F
30.7N   81.3W                 71                N/A     2/ 9
MAYPORT                    76 70  110/  6/ 11 1019.7F
31.4N   80.9W              69 70  180/  8/  8 1019.6F   2/ 9   2/ 9
ST AUGUSTINE               73 76  110/  5/  6 1020.0F

$$
FLZ040-043>046-052-053-057-058-063-144-232000-
INTERIOR CENTRAL FLORIDA
  
CITY           SKY/WX    TMP DP  RH WIND       PRES   REMARKS
OCALA          FAIR      83  50  31 VRB6      30.10F                  
LEESBURG       FAIR      81  50  33 CALM      30.10F                  
SANFORD        FAIR      82  55  39 VRB5      30.09F                  
ORLANDO EXEC   FAIR      83  54  36 NE10      30.09F                  
ORLANDO INTL   FAIR      82  54  37 VRB6      30.09F                  
KISSIMMEE      FAIR      82  56  40 VRB5      30.10F                  
WINTER HAVEN   FAIR      84  54  35 SE3       30.09F                  
LAKELAND       SUNNY     81  52  36 NE5       30.10F                  
BARTOW         MOSUNNY   82  54  36 N6        30.08F                  
SEBRING        FAIR      82  58  43 NE13      30.08F                  
OKEECHOBEE     PTSUNNY   81  55  41 CALM      30.07F                  

$$
FLZ041-047-054-059-064-141-147-232000-
EAST CENTRAL FLORIDA
  
CITY           SKY/WX    TMP DP  RH WIND       PRES   REMARKS
ORMOND BEACH   SUNNY     77  55  47 NE8       30.12F                  
DAYTONA BEACH  FAIR      79  60  52 NE10      30.11F                  
DELAND         FAIR      81  50  34 N7        30.09F                  
NEW SMYRNA BEA SUNNY     82  59  44 E9        30.12F                  
JFK SPACE CTR  FAIR      79  61  53 NE10      30.09F                  
TITUSVILLE     MOSUNNY   82  55  39 VRB6      30.11F                  
CAPE CANAVERAL FAIR      79  57  46 NE8       30.09F                  
PATRICK AFB    FAIR      78  62  57 NE9       30.10F                  
MELBOURNE      FAIR      80  58  46 E10       30.10F                  
VERO BEACH     FAIR      77  58  51 E7        30.10F                  
FT PIERCE      FAIR      78  59  51 E9        30.09F                  
STUART         PTSUNNY   77  59  53 E9        30.11F                  

STATION/POSITION SKY/WX   TEMP    WIND        PRES    WAVE   SWELL
                          AIR SEA DIR/SP/G            HT/PER HT/PER
                          (F)     (DEG/KT/KT) (MB)    (FT/S) (FT/S)
28.5N   80.2W              73     330/ 12/ 16 1019.9F   3/ 9   3/ 9
28.9N   78.5W              72 79   10/  6/ 10 1019.8F   4/ 9   3/ 9
TRIDENT PIER               76 76   70/  9/ 13 1020.6F
28.4N   80.5W                 76                N/A     2/ 8
27.5N   80.2W                 75                N/A     2/ 9

$$
FLZ050-056-061-142-242-148-248-149-249-151-251-155-255-
160-260-232000-
WEST CENTRAL FLORIDA
  
CITY           SKY/WX    TMP DP  RH WIND       PRES   REMARKS
CRYSTAL RIVER  FAIR      81  57  44 NW6       30.09F                  
INVERNESS      FAIR      82  52  34 N6        30.09F                  
BROOKSVILLE    FAIR      85  51  31 NE8       30.09F                  
CLEARWATER AIR FAIR      77  59  53 W8        30.09F                  
ST PETE CLEARW FAIR      81  50  33 CALM      30.09F                  
TAMPA INTL     FAIR      81  52  36 W12       30.09F                  
TAMPA EXEC     FAIR      84  54  34 E5        30.09F                  
PLANT CITY     FAIR      84  52  32 NE9       30.11F                  
MACDILL AFB      N/A    N/A N/A N/A MISG        N/A                   
PETER O KNIGHT FAIR      86  52  30 NE8       30.09F                  
ST PETERSBURG  FAIR      77  52  41 NE5       30.07F                  
SARASOTA       FAIR      82  60  47 W14       30.07F                  
VENICE         FAIR      81  61  50 W10       30.09F                  

STATION/POSITION SKY/WX   TEMP    WIND        PRES    WAVE   SWELL
                          AIR SEA DIR/SP/G            HT/PER HT/PER
                          (F)     (DEG/KT/KT) (MB)    (FT/S) (FT/S)
27.3N   84.2W                 76                N/A     2/ 4
CLEARWATER BEACH           73 74  270/  9/ 10 1019.5F
MIDDLE TAMPA BAY                   10/  9/ 10 1018.9F
VENICE                     75 75  260/ 10/ 12 1018.5F

$$
FLZ066-069-070-075>078-162-262-165-265-232000-
SOUTHWEST FLORIDA AND KEYS
  
CITY           SKY/WX    TMP DP  RH WIND       PRES   REMARKS
PUNTA GORDA    FAIR      84  55  36 E7        30.08F                  
FT MYERS       FAIR      84  57  39 E10       30.05F                  
SOUTHWEST INTL FAIR      83  57  41 E10       30.06F                  
NAPLES         FAIR      82  62  50 VRB5      30.05F                  
MARCO ISLAND   FAIR      83  61  47 VRB3      30.06F                  
IMMOKALEE      FAIR      84  59  42 SE10      30.04F                  
MARATHON       FAIR      85  58  39 E13G18    30.05F                  
KEY WEST NAS   FAIR      83  61  47 E16       30.06F                  
KEY WEST INTL  FAIR      81  62  52 E15       30.06F                  

STATION/POSITION SKY/WX   TEMP    WIND        PRES    WAVE   SWELL
                          AIR SEA DIR/SP/G            HT/PER HT/PER
                          (F)     (DEG/KT/KT) (MB)    (FT/S) (FT/S)
NAPLES                        76  210/ 13/ 15 1017.6F
DRY TORTUGAS               76      70/ 11/ 13 1018.3F
SAND KEY                   75                 1018.0F
SOMBRERO KEY               75                 1017.4F

$$
FLZ067-068-071>074-168-172>174-232000-
SOUTHEAST FLORIDA 
  
CITY           SKY/WX    TMP DP  RH WIND       PRES   REMARKS
W PALM BEACH   FAIR      79  60  52 NE12      30.09F                  
BOCA RATON     MOSUNNY   82  59  44 E12G22    30.08F                  
FT LAUDER-EXEC FAIR      82  57  42 E15G21    30.07F                  
FT LAUDERDALE  FAIR      80  58  46 NE14      30.07F                  
POMPANO BEACH  FAIR      80  57  45 NE14      30.08F                  
PEMBROKE PINES FAIR      81  59  47 NE13      30.08F                  
OPA LOCKA      PTSUNNY   81  59  47 E10       30.08F                  
MIAMI          PTSUNNY   79  60  52 NE14G23   30.07F                  
WEST KENDALL   FAIR      83  59  44 E16G23    30.06F                  
HOMESTEAD      FAIR      80  62  52 NE15      30.05F                  

STATION/POSITION SKY/WX   TEMP    WIND        PRES    WAVE   SWELL
                          AIR SEA DIR/SP/G            HT/PER HT/PER
                          (F)     (DEG/KT/KT) (MB)    (FT/S) (FT/S)
PORT EVERGLADES            76      50/ 11/ 15 1018.7F
VIRGINIA KEY               76 79   50/ 11/ 14 1018.0F
LAKE WORTH                 74 78   50/  8/ 11 1020.0F
SETTLEMENT POINT           74      40/  8/  9 1019.2F

$$